Weather History for Stuttgart, AR

Change the Weather History Date:

Tuesday, April 23, 2013

  Actual Average Record
Temperature  
Mean Temperature 68 °F -  
Max Temperature 78 °F 72 °F 87 °F (2009)
Min Temperature 57 °F 53 °F 44 °F (1998)
Cooling Degree Days 2    
Growing Degree Days 18 (Base 50)    
Moisture  
Dew Point 56 °F    
Average Humidity 67    
Maximum Humidity 82    
Minimum Humidity 51    
Precipitation  
Precipitation 0.00 in - - ()
Sea Level Pressure  
Sea Level Pressure 29.97 in    
Wind  
Wind Speed 11 mph (South)    
Max Wind Speed 22 mph    
Max Gust Speed 29 mph    
Visibility 10 miles    
Events      
Averages and records for this station are not official NWS values.
T = Trace of Precipitation, MM = Missing Value Source: NWS Daily Summary

Daily Weather History Graph

Daily Weather History Graph

Search for Another Location

Airport:

Trip Planner

Search our weather history database for the weather conditions in past years. The results will help you decide how hot, cold, wet, or windy it might be!

Date:

Astronomy

Apr. 23, 2013 Rise Set
Actual Time 6:24 AM CDT 7:44 PM CDT
Civil Twilight 5:58 AM CDT 8:11 PM CDT
Nautical Twilight 5:26 AM CDT 8:42 PM CDT
Astronomical Twilight 4:53 AM CDT 9:15 PM CDT
Moon 5:44 PM CDT (4/23) 4:47 AM CDT (4/23)
Length of Visible Light 14h 13m
Length of Day
13h 20m
Waxing Gibbous, 94% of the Moon is Illuminated
Apr 23
Waxing Gibbous
Apr 25
Full
May 2
Last Quarter
May 9
New
May 17
First Quarter

Hourly Weather History & Observations

Time (CDT) Temp. Dew Point Humidity Pressure Visibility Wind Dir Wind Speed Gust Speed Precip Events Conditions
12:15 AM 60.8 °F 48.2 °F 63% 30.03 in 10.0 mi ESE 6.9 mph - N/A   Clear
12:35 AM 60.8 °F 48.2 °F 63% 30.02 in 10.0 mi ESE 5.8 mph - N/A   Clear
12:55 AM 60.8 °F 48.2 °F 63% 30.01 in 10.0 mi East 5.8 mph - N/A   Clear
1:15 AM 59.0 °F 48.2 °F 67% 30.00 in 10.0 mi ESE 8.1 mph - N/A   Clear
1:35 AM 59.0 °F 48.2 °F 67% 30.01 in 10.0 mi ESE 6.9 mph - N/A   Clear
1:55 AM 57.2 °F 48.2 °F 72% 30.00 in 10.0 mi ESE 6.9 mph - N/A   Clear
2:15 AM 57.2 °F 48.2 °F 72% 30.00 in 10.0 mi ESE 5.8 mph - N/A   Clear
2:35 AM 57.2 °F 48.2 °F 72% 29.99 in 10.0 mi ESE 6.9 mph - N/A   Clear
2:55 AM 59.0 °F 48.2 °F 67% 30.00 in 10.0 mi ESE 5.8 mph - N/A   Clear
3:15 AM 59.0 °F 48.2 °F 67% 30.00 in 10.0 mi ESE 8.1 mph - N/A   Clear
3:35 AM 57.2 °F 48.2 °F 72% 29.99 in 10.0 mi SE 8.1 mph - N/A   Clear
3:55 AM 57.2 °F 50.0 °F 77% 29.99 in 10.0 mi SE 8.1 mph - N/A   Clear
4:15 AM 57.2 °F 50.0 °F 77% 29.99 in 10.0 mi SE 8.1 mph - N/A   Clear
4:35 AM 57.2 °F 50.0 °F 77% 29.99 in 10.0 mi SE 8.1 mph - N/A   Clear
5:15 AM 57.2 °F 51.8 °F 82% 30.00 in 10.0 mi SSE 9.2 mph - N/A   Clear
5:35 AM 57.2 °F 51.8 °F 82% 29.99 in 10.0 mi SSE 10.4 mph - N/A   Clear
5:55 AM 57.2 °F 51.8 °F 82% 29.99 in 10.0 mi SSE 12.7 mph - N/A   Clear
6:15 AM 59.0 °F 51.8 °F 77% 29.99 in 10.0 mi SSE 10.4 mph - N/A   Clear
6:35 AM 59.0 °F 51.8 °F 77% 29.99 in 10.0 mi SSE 12.7 mph - N/A   Clear
6:55 AM 59.0 °F 51.8 °F 77% 29.99 in 10.0 mi SSE 13.8 mph - N/A   Clear
7:15 AM 59.0 °F 51.8 °F 77% 30.01 in 10.0 mi SSE 11.5 mph - N/A   Mostly Cloudy
7:35 AM 60.8 °F 53.6 °F 77% 30.01 in 10.0 mi South 16.1 mph - N/A   Overcast
7:55 AM 62.6 °F 53.6 °F 72% 30.02 in 10.0 mi SSE 16.1 mph - N/A   Mostly Cloudy
8:15 AM 62.6 °F 55.4 °F 77% 30.02 in 10.0 mi South 17.3 mph - N/A   Mostly Cloudy
8:35 AM 64.4 °F 55.4 °F 73% 30.03 in 10.0 mi South 16.1 mph 20.7 mph N/A   Overcast
8:55 AM 64.4 °F 57.2 °F 77% 30.03 in 10.0 mi South 16.1 mph - N/A   Overcast
9:15 AM 64.4 °F 57.2 °F 77% 30.04 in 10.0 mi South 13.8 mph - N/A   Overcast
9:35 AM 64.4 °F 57.2 °F 77% 30.04 in 10.0 mi South 15.0 mph - N/A   Overcast
9:55 AM 66.2 °F 57.2 °F 73% 30.04 in 10.0 mi South 16.1 mph - N/A   Overcast
10:15 AM 66.2 °F 57.2 °F 73% 30.04 in 10.0 mi South 17.3 mph - N/A   Overcast
10:35 AM 69.8 °F 59.0 °F 68% 30.02 in 10.0 mi SSE 19.6 mph - N/A   Mostly Cloudy
10:55 AM 71.6 °F 59.0 °F 64% 30.02 in 10.0 mi South 19.6 mph 28.8 mph N/A   Mostly Cloudy
11:15 AM 71.6 °F 59.0 °F 64% 30.01 in 10.0 mi South 20.7 mph - N/A   Mostly Cloudy
11:35 AM 71.6 °F 59.0 °F 64% 30.01 in 10.0 mi South 19.6 mph 24.2 mph N/A   Mostly Cloudy
11:55 AM 71.6 °F 60.8 °F 69% 30.01 in 10.0 mi South 19.6 mph 23.0 mph N/A   Mostly Cloudy
12:15 PM 73.4 °F 60.8 °F 65% 30.00 in 10.0 mi SSW 18.4 mph 24.2 mph N/A   Mostly Cloudy
12:35 PM 73.4 °F 60.8 °F 65% 30.00 in 10.0 mi South 20.7 mph 27.6 mph N/A   Overcast
12:55 PM 75.2 °F 59.0 °F 57% 29.99 in 10.0 mi South 21.9 mph 28.8 mph N/A   Overcast
1:15 PM 75.2 °F 59.0 °F 57% 29.98 in 10.0 mi South 20.7 mph - N/A   Overcast
1:35 PM 75.2 °F 60.8 °F 61% 29.97 in 10.0 mi South 15.0 mph - N/A   Overcast
1:55 PM 75.2 °F 60.8 °F 61% 29.96 in 10.0 mi South 19.6 mph - N/A   Overcast
2:15 PM 77.0 °F 60.8 °F 57% 29.96 in 10.0 mi SSW 19.6 mph 25.3 mph N/A   Mostly Cloudy
2:55 PM 78.8 °F 60.8 °F 54% 29.95 in 10.0 mi SSW 17.3 mph 26.5 mph N/A   Mostly Cloudy
3:15 PM 78.8 °F 60.8 °F 54% 29.94 in 10.0 mi SW 20.7 mph 24.2 mph N/A   Mostly Cloudy
3:35 PM 77.0 °F 59.0 °F 54% 29.94 in 10.0 mi SSW 13.8 mph 21.9 mph N/A   Overcast
3:55 PM 78.8 °F 60.8 °F 54% 29.93 in 10.0 mi SSW 18.4 mph - N/A   Scattered Clouds
4:15 PM 78.8 °F 60.8 °F 54% 29.92 in 10.0 mi SW 18.4 mph - N/A   Partly Cloudy
4:35 PM 78.8 °F 60.8 °F 54% 29.91 in 10.0 mi SW 15.0 mph - N/A   Scattered Clouds
4:55 PM 78.8 °F 59.0 °F 51% 29.91 in 10.0 mi SW 11.5 mph - N/A   Scattered Clouds
5:15 PM 78.8 °F 60.8 °F 54% 29.90 in 10.0 mi SW 10.4 mph - N/A   Mostly Cloudy
5:35 PM 78.8 °F 60.8 °F 54% 29.90 in 10.0 mi SW 11.5 mph - N/A   Mostly Cloudy
5:55 PM 77.0 °F 60.8 °F 57% 29.90 in 10.0 mi SW 9.2 mph - N/A   Mostly Cloudy
6:15 PM 77.0 °F 60.8 °F 57% 29.90 in 10.0 mi SW 6.9 mph - N/A   Mostly Cloudy
6:35 PM 75.2 °F 60.8 °F 61% 29.90 in 10.0 mi SW 6.9 mph - N/A   Mostly Cloudy
6:55 PM 73.4 °F 60.8 °F 65% 29.90 in 10.0 mi SW 5.8 mph - N/A   Mostly Cloudy
7:15 PM 73.4 °F 60.8 °F 65% 29.90 in 10.0 mi SW 4.6 mph - N/A   Mostly Cloudy
7:35 PM 73.4 °F 60.8 °F 65% 29.90 in 10.0 mi SSW 5.8 mph - N/A   Overcast
7:55 PM 71.6 °F 60.8 °F 69% 29.91 in 10.0 mi SSW 6.9 mph - N/A   Mostly Cloudy
8:15 PM 71.6 °F 60.8 °F 69% 29.91 in 5.0 mi South 6.9 mph - N/A   Overcast
8:35 PM 71.6 °F 59.0 °F 64% 29.92 in 10.0 mi South 8.1 mph - N/A   Overcast
8:55 PM 71.6 °F 59.0 °F 64% 29.92 in 10.0 mi South 6.9 mph - N/A   Overcast
9:15 PM 73.4 °F 59.0 °F 61% 29.93 in 10.0 mi South 8.1 mph - N/A   Overcast
10:15 PM 71.6 °F 60.8 °F 69% 29.93 in 10.0 mi South 9.2 mph - N/A   Overcast
10:35 PM 71.6 °F 60.8 °F 69% 29.93 in 10.0 mi South 10.4 mph - N/A   Overcast
10:55 PM 69.8 °F 60.8 °F 73% 29.93 in 10.0 mi SW 6.9 mph - N/A   Overcast
11:15 PM 64.4 °F 53.6 °F 68% 29.95 in 10.0 mi NW 19.6 mph 25.3 mph N/A   Overcast
11:35 PM 60.8 °F 51.8 °F 72% 29.95 in 10.0 mi NW 18.4 mph 23.0 mph N/A   Overcast
11:55 PM 59.0 °F 50.0 °F 72% 29.96 in 10.0 mi NW 15.0 mph - N/A   Mostly Cloudy